Location: Unspecified
(42.2600°N, 0.0000°E)
Time: 03:28:23
(UTC+00:00)

ISS - Pass Details

Date: 28 May 2019
Orbit: 408 x 418 km, 51.6° (Epoch: 16 June)

Event Time Altitude Azimuth Distance (km) Brightness Sun altitude
Rises 20:30:17 0° 301° (WNW) 2,354 2.0 -10.3°
Reaches altitude 10° 20:32:54 10° 323° (NW) 1,493 0.5 -10.7°
Maximum altitude 20:35:12 17° 6° (N) 1,140 -1.1 -11.0°
Drops below altitude 10° 20:37:30 10° 50° (NE) 1,496 -1.0 -11.3°
Enters shadow 20:40:01 - 71° (ENE) 2,319 -0.3 -11.7°
